Location: Bittelbronn
(48.4454°N, 8.5870°E)
Time: 20:39:34
(UTC+00:00)

Cosmos 1300 Rocket - Pass Details

Date: 23 May 2024
Orbit: 597 x 624 km, 82.5° (Epoch: 16 June)

Event Time Altitude Azimuth Distance (km) Brightness Sun altitude
Rises 01:10:43 0° 352° (N) 2,876 7.9 -16.8°
Reaches altitude 10° 01:12:58 10° 355° (N) 1,963 7.0 -16.6°
Maximum altitude 01:17:17 69° 78° (ENE) 648 3.7 -16.3°
Enters shadow 01:20:28 18° 160° (SSE) 1,506 5.2 -16.0°
